Weather History for Chiang Mai, Thailand

Change the Weather History Date:

Tuesday, June 18, 2013

  Actual Average Record
Temperature  
Mean Temperature 89 °F -  
Max Temperature 98 °F 86 °F 98 °F (2006)
Min Temperature 80 °F 73 °F 71 °F (2004)
Cooling Degree Days 24    
Growing Degree Days 39 (Base 50)    
Moisture  
Dew Point 68 °F    
Average Humidity 51    
Maximum Humidity 74    
Minimum Humidity 30    
Precipitation  
Precipitation 0.00 in 0.20 in - ()
Sea Level Pressure  
Sea Level Pressure 29.60 in    
Wind  
Wind Speed 4 mph ()    
Max Wind Speed 12 mph    
Max Gust Speed -    
Visibility 6.2 miles    
Events      
Averages and records for this station are not official NWS values.
T = Trace of Precipitation, MM = Missing Value Source: Averaged Metar Reports

Daily Weather History Graph

Daily Weather History Graph

Search for Another Location

Airport:

Trip Planner

Search our weather history database for the weather conditions in past years. The results will help you decide how hot, cold, wet, or windy it might be!

Date:

Astronomy

Jun. 18, 2013 Rise Set
Actual Time 5:47 AM ICT 7:03 PM ICT
Civil Twilight 5:23 AM ICT 7:27 PM ICT
Nautical Twilight 4:54 AM ICT 7:56 PM ICT
Astronomical Twilight 4:24 AM ICT 8:26 PM ICT
Moon 1:46 PM ICT (6/18) 12:59 AM ICT (6/18)
Length of Visible Light 14h 04m
Length of Day
13h 15m
Waxing Gibbous, 66% of the Moon is Illuminated
Jun 18
Waxing Gibbous
Jun 23
Full
Jun 30
Last Quarter
Jul 8
New
Jul 16
First Quarter

Hourly Weather History & Observations

Time (ICT) Temp. Heat Index Dew Point Humidity Pressure Visibility Wind Dir Wind Speed Gust Speed Precip Events Conditions
12:00 AM 86.0 °F 90.4 °F 69.8 °F 58% 29.68 in 6.2 mi WSW 5.8 mph - N/A   Partly Cloudy
1:00 AM 85 °F - 74 °F 61% 29.61 in 6 mi Calm Calm - -   Scattered Clouds
1:30 AM 84.2 °F 88.4 °F 69.8 °F 62% 29.65 in 6.2 mi SSW 5.8 mph - N/A   Partly Cloudy
2:00 AM 84.2 °F 88.4 °F 69.8 °F 62% 29.65 in 6.2 mi SSW 5.8 mph - N/A   Partly Cloudy
2:30 AM 84.2 °F 88.4 °F 69.8 °F 62% 29.62 in 6.2 mi SW 4.6 mph - N/A   Partly Cloudy
3:30 AM 84.2 °F 88.4 °F 69.8 °F 62% 29.62 in 6.2 mi SSW 3.5 mph - N/A   Partly Cloudy
4:00 AM 82.4 °F 86.3 °F 69.8 °F 66% 29.62 in 6.2 mi Calm Calm - N/A   Partly Cloudy
4:30 AM 82.4 °F 86.3 °F 69.8 °F 66% 29.62 in 6.2 mi Calm Calm - N/A   Partly Cloudy
5:00 AM 80.6 °F 83.9 °F 69.8 °F 70% 29.62 in 6.2 mi Calm Calm - N/A   Partly Cloudy
5:30 AM 80.6 °F 83.9 °F 69.8 °F 70% 29.62 in 6.2 mi Calm Calm - N/A   Partly Cloudy
6:00 AM 80.6 °F 83.9 °F 69.8 °F 70% 29.62 in 6.2 mi Calm Calm - N/A   Partly Cloudy
6:30 AM 80.6 °F 84.6 °F 71.6 °F 74% 29.65 in 6.2 mi Calm Calm - N/A   Partly Cloudy
7:00 AM 81 °F - 74 °F 74% 29.61 in 6 mi Calm Calm - -   Clear
7:00 AM 80.6 °F 84.6 °F 71.6 °F 74% 29.65 in 6.2 mi Calm Calm - N/A   Partly Cloudy
7:30 AM 82.4 °F 86.3 °F 69.8 °F 66% 29.68 in 6.2 mi Calm Calm - N/A   Partly Cloudy
8:00 AM 86.0 °F 89.4 °F 68.0 °F 55% 29.68 in 6.2 mi SW 4.6 mph - N/A   Partly Cloudy
8:30 AM 86.0 °F 90.4 °F 69.8 °F 58% 29.68 in 6.2 mi South 5.8 mph - N/A   Partly Cloudy
9:00 AM 86.0 °F 90.4 °F 69.8 °F 58% 29.68 in 6.2 mi SSE 5.8 mph - N/A   Partly Cloudy
9:30 AM 86.0 °F 90.4 °F 69.8 °F 58% 29.68 in 6.2 mi SE 5.8 mph - N/A   Partly Cloudy
10:00 AM 87.8 °F 91.4 °F 68.0 °F 52% 29.68 in 6.2 mi SW 2.3 mph - N/A   Partly Cloudy
10:30 AM 89.6 °F 93.4 °F 68.0 °F 49% 29.68 in 6.2 mi ESE 4.6 mph - N/A   Partly Cloudy
11:00 AM 91.4 °F 95.4 °F 68.0 °F 46% 29.65 in 6.2 mi South 3.5 mph - N/A   Partly Cloudy
11:30 AM 91.4 °F 93.2 °F 64.4 °F 41% 29.65 in 6.2 mi SE 4.6 mph - N/A   Partly Cloudy
12:00 PM 93.2 °F 96.2 °F 66.2 °F 41% 29.65 in 6.2 mi South 8.1 mph - N/A   Partly Cloudy
12:30 PM 93.2 °F 94.1 °F 62.6 °F 36% 29.62 in 6.2 mi SE 5.8 mph - N/A   Partly Cloudy
1:00 PM 95 °F - 69 °F 33% 29.55 in 7 mi SSW 3.5 mph - -   Scattered Clouds
1:00 PM 93.2 °F 93.3 °F 60.8 °F 34% 29.62 in 6.2 mi SSW 6.9 mph - N/A   Partly Cloudy
1:30 PM 95.0 °F 96.0 °F 62.6 °F 34% 29.59 in 6.2 mi South 6.9 mph - N/A   Partly Cloudy
2:00 PM 95.0 °F 97.0 °F 64.4 °F 36% 29.59 in 6.2 mi ESE 6.9 mph - N/A   Partly Cloudy
2:30 PM 95.0 °F 97.0 °F 64.4 °F 36% 29.56 in 6.2 mi South 6.9 mph - N/A   Partly Cloudy
3:00 PM 96.8 °F 97.1 °F 60.8 °F 30% 29.53 in 6.2 mi SSE 6.9 mph - N/A   Partly Cloudy
3:30 PM 96.8 °F 97.1 °F 60.8 °F 30% 29.53 in 6.2 mi SE 8.1 mph - N/A   Partly Cloudy
4:00 PM 96.8 °F 98.0 °F 62.6 °F 32% 29.50 in 6.2 mi South 9.2 mph - N/A   Partly Cloudy
4:30 PM 96.8 °F 98.0 °F 62.6 °F 32% 29.50 in 6.2 mi SSE 9.2 mph - N/A   Partly Cloudy
5:00 PM 95.0 °F 96.0 °F 62.6 °F 34% 29.50 in 6.2 mi South 11.5 mph - N/A   Partly Cloudy
5:30 PM 95.0 °F 97.0 °F 64.4 °F 36% 29.50 in 6.2 mi SSE 11.5 mph - N/A   Partly Cloudy
6:00 PM 95.0 °F 98.5 °F 66.2 °F 39% 29.50 in 6.2 mi South 10.4 mph - N/A   Partly Cloudy
6:30 PM 93.2 °F 96.2 °F 66.2 °F 41% 29.53 in 6.2 mi SSE 9.2 mph - N/A   Partly Cloudy
7:00 PM 92 °F - 73 °F 44% 29.46 in 7 mi SW 3.5 mph - -   Scattered Clouds
7:00 PM 91.4 °F 95.4 °F 68.0 °F 46% 29.56 in 6.2 mi SSE 6.9 mph - N/A   Partly Cloudy
7:30 PM 91.4 °F 95.4 °F 68.0 °F 46% 29.56 in 6.2 mi SE 6.9 mph - N/A   Partly Cloudy
8:00 PM 89.6 °F 92.2 °F 66.2 °F 46% 29.59 in 6.2 mi SSE 5.8 mph - N/A   Partly Cloudy
8:30 PM 89.6 °F 92.2 °F 66.2 °F 46% 29.59 in 6.2 mi SSE 4.6 mph - N/A   Partly Cloudy
9:00 PM 87.8 °F 90.4 °F 66.2 °F 49% 29.59 in 6.2 mi SSE 8.1 mph - N/A   Partly Cloudy
9:30 PM 87.8 °F 90.4 °F 66.2 °F 49% 29.62 in 6.2 mi SSE 5.8 mph - N/A   Partly Cloudy
10:00 PM 86.0 °F 89.4 °F 68.0 °F 55% 29.62 in 6.2 mi South 6.9 mph - N/A   Partly Cloudy
10:30 PM 86.0 °F 90.4 °F 69.8 °F 58% 29.62 in 6.2 mi SW 6.9 mph - N/A   Partly Cloudy
11:00 PM 86.0 °F 89.4 °F 68.0 °F 55% 29.65 in 6.2 mi SW 4.6 mph - N/A   Partly Cloudy